Tanana, AK

6:18 AM AKST on February 14, 2016 (GMT -0900)
Calhoun Memorial | | Change Station
CLOSE
Current Station
Airport
Location: Tanana,
Elevation: 220 ft
Nearby Weather Stations

Elev 220 ft 65.18 °N, 152.11 °W | Updated 26 minutes ago

Overcast
Overcast
15 °F
Feels Like 9 °F
N
4
Wind Variable Wind from East

Today
High -- | Low -- °F
--% Chance of Precip.
Yesterday
High -- | Low -- °F
Precip. -- in
Pressure 29.54 in
Visibility 10.0 miles
Clouds Overcast 8000 ft
Windchill 9 °F
Dew Point 8 °F
Humidity 74%
Rainfall 0.00 in
Snow Depth Not available.
9:13 AM 5:33 PM
Waxing Crescent, 42% visible
METAR PATA 141452Z AUTO 10003KT 10SM OVC080 M09/M13 A2952 RMK AO2 SLP001 T10941133 58003 TSNO
Pressure 29.54 in
Visibility 10.0 miles
Clouds Overcast 8000 ft
Windchill 9 °F
Dew Point 8 °F
Humidity 74%
Rainfall 0.00 in
Snow Depth Not available.
9:13 AM 5:33 PM
Waxing Crescent, 42% visible
METAR PATA 141452Z AUTO 10003KT 10SM OVC080 M09/M13 A2952 RMK AO2 SLP001 T10941133 58003 TSNO

10-Day Weather Forecast

Almanac

Astronomy

Feb. 14, 2016 Rise Set
Actual Time
Civil Twilight
Nautical Twilight
Astronomical Twilight
Moon
Length of Visible Light
Length of Day
Tomorrow will be .
, % of the Moon is Illuminated

Today's Extremes

State Highs State Lows

Community

WunderPhotos

Upload Photos

1,892,788 photos uploaded!

WunderBlog® & News

Nearby

Air Quality

  Air Quality AQ Index Pollutant
Not available.

Snow Depth

Station Depth Elevation

Earthquake Activity

City Distance Mag. Time & Date
Minimum magnitude displayed is 2.5.

Coastal Water Temperatures

Place Temperature

Stations

Nearby Weather Stations

Station Location Temp. Windchill Dew Point Humidity Wind Precip. Elev Updated Type
                   

Watches & Warnings

There are currently no watches in effect.